Methuen, Massachusetts, United States (01844)
Lat: 42.73N, Lon: 71.19W
Wx Zone: MAZ006
Local Info
Past Weather Observations for Wednesday, October 29, 2014

NOTE: This archive is for the closest National Weather Service station to Methuen. Information may differ from the station used for current weather conditions.

Click here for Long-term Archive

Time Weather Temperature Dewpoint Humidity Pressure Winds Precip Visibility
23:54
Clear
48°F / 9°C 45°F / 7°C 87% 29.89 in
(1012 mb)
W 5.8 mph
(W 9 kph)
- 10SM
22:54
Clear
50°F / 10°C 48°F / 9°C 94% 29.89 in
(1012 mb)
SSW 8.1 mph
(SSW 13 kph)
- 10SM
21:54
Mostly Cloudy
52°F / 11°C 48°F / 9°C 88% 29.89 in
(1012 mb)
SSW 6.9 mph
(SSW 11 kph)
0.00 in
(0.00 mm)
10SM
20:54
Overcast
Light Rain
52°F / 11°C 48°F / 9°C 88% 29.89 in
(1012 mb)
SSW 6.9 mph
(SSW 11 kph)
0.01 in
(0.25 mm)
10SM
19:54
Overcast
Light Rain
52°F / 11°C 48°F / 9°C 88% 29.89 in
(1012 mb)
SSW 6.9 mph
(SSW 11 kph)
0.06 in
(1.52 mm)
10SM
18:54
Overcast
Light Rain
54°F / 12°C 48°F / 9°C 82% 29.89 in
(1012 mb)
SSW 6.9 mph
(SSW 11 kph)
0.04 in
(1.02 mm)
7SM
17:54
Overcast
57°F / 14°C 43°F / 6°C 59% 29.83 in
(1010 mb)
Variable 6.9 mph
(Variable 11 kph)
- 10SM
16:54
Overcast
61°F / 16°C 46°F / 8°C 59% 29.83 in
(1010 mb)
W 6.9 mph
(W 11 kph)
- 10SM
15:54
Overcast
63°F / 17°C 52°F / 11°C 68% 29.83 in
(1010 mb)
WNW 10.4 mph
(WNW 17 kph)
- 10SM
15:25
Mostly Cloudy
63°F / 17°C 54°F / 12°C 73% 29.8 in
(1009 mb)
WNW 8.1 mph
(WNW 13 kph)
- 10SM
14:54
Mostly Cloudy
64°F / 18°C 55°F / 13°C 73% 29.8 in
(1009 mb)
NW 13.8 mph
(NW 22 kph)
- 10SM
13:54
Mostly Cloudy
66°F / 19°C 57°F / 14°C 73% 29.8 in
(1009 mb)
N 6.9 mph
(N 11 kph)
- 10SM
12:54
Partly Cloudy
64°F / 18°C 57°F / 14°C 78% 29.8 in
(1009 mb)
Variable 3.5 mph
(Variable 6 kph)
- 10SM
11:54
Clear
63°F / 17°C 57°F / 14°C 83% 29.83 in
(1010 mb)
Calm - 10SM
11:08
Partly Cloudy
61°F / 16°C 57°F / 14°C 88% 29.83 in
(1010 mb)
SSW 3.5 mph
(SSW 6 kph)
- 8SM
10:54
Mostly Cloudy
61°F / 16°C 57°F / 14°C 88% 29.83 in
(1010 mb)
SSW 4.6 mph
(SSW 7 kph)
- 7SM
10:24
Overcast
Fog And Mist
57°F / 14°C 55°F / 13°C 94% 29.83 in
(1010 mb)
SSW 3.5 mph
(SSW 6 kph)
- 6SM
09:54
Overcast
Fog And Mist
55°F / 13°C 55°F / 13°C 100% 29.86 in
(1011 mb)
SSE 4.6 mph
(SSE 7 kph)
- 4SM
09:41
Overcast
Fog And Mist
55°F / 13°C 55°F / 13°C 100% 29.86 in
(1011 mb)
S 3.5 mph
(S 6 kph)
- 3SM
09:18
Overcast
Fog And Mist
55°F / 13°C 54°F / 12°C 94% 29.86 in
(1011 mb)
S 3.5 mph
(S 6 kph)
- 2SM
09:05
Obscured
Fog And Mist
54°F / 12°C 54°F / 12°C 100% 29.86 in
(1011 mb)
SW 3.5 mph
(SW 6 kph)
- 1SM
08:54
Obscured
Fog
54°F / 12°C 54°F / 12°C 100% 29.86 in
(1011 mb)
Calm - 1/4SM
07:54
Obscured
Fog
54°F / 12°C 54°F / 12°C 100% 29.89 in
(1012 mb)
SSW 3.5 mph
(SSW 6 kph)
- M1/4SM
06:54
Obscured
Fog
52°F / 11°C 52°F / 11°C 100% 29.89 in
(1012 mb)
Calm - M1/4SM
05:54
Obscured
Fog
52°F / 11°C 52°F / 11°C 100% 29.89 in
(1012 mb)
Calm - 1/4SM
04:54
Obscured
Fog
52°F / 11°C 52°F / 11°C 100% 29.89 in
(1012 mb)
Calm - 1/4SM
03:54
Obscured
Fog
52°F / 11°C 52°F / 11°C 100% 29.92 in
(1013 mb)
Calm - 1/2SM
03:24
Obscured
Fog
52°F / 11°C 50°F / 10°C 94% 29.92 in
(1013 mb)
Calm - 1/2SM
03:10
Obscured
Fog And Mist
52°F / 11°C 50°F / 10°C 94% 29.92 in
(1013 mb)
Calm - 3/4SM
02:54
Obscured
Fog
52°F / 11°C 52°F / 11°C 100% 29.92 in
(1013 mb)
Calm - 1/2SM
01:54
Obscured
Fog
52°F / 11°C 52°F / 11°C 100% 29.92 in
(1013 mb)
Calm - 1/4SM
01:05
Obscured
Fog
52°F / 11°C 50°F / 10°C 94% 29.95 in
(1014 mb)
Calm - 1/2SM
00:54
Obscured
Fog And Mist
52°F / 11°C 50°F / 10°C 94% 29.95 in
(1014 mb)
E 3.5 mph
(E 6 kph)
- 3/4SM
00:29
Overcast
Fog And Mist
50°F / 10°C 50°F / 10°C 100% 29.95 in
(1014 mb)
Calm - 1 3/4SM
00:13
Overcast
52°F / 11°C 48°F / 9°C 88% 29.95 in
(1014 mb)
NNW 3.5 mph
(NNW 6 kph)
- 7SM
Time Weather Temperature Dewpoint Humidity Pressure Winds Precip Visibility


Weather for websites

WeatherForYou.com, LLC is not responsible for any damages or problems caused by this service. Current weather conditions are obtained from the closest station including government and personal stations which may have varying degrees of accuracy. Weather forecasts are derived from the NOAA NDFD. Like all things, this site belongs to Jesus Christ... He just trusts me to maintain it. If you have any questions or comments email webmaster@weatherforyou.com

Copyright © 2014, WeatherForYou.com LLC. All rights reserved.